Dewpoint
53 53 53 53 54 54 54 54 55 55 56 56 56 56 57 57 57 57 57 57 57 57 57 57 57 57 57 57 57 57 57 56 53 45 47 35 47 58 65 66 69 72 77 68 63 64 62 62 61 60 61 64 63 62 60 60 60 54 52 51 49 49 48 45 41 42 37 32 37 42 47 49 50 53 56 59 58 58 58 59 60 62 62 63 64 65 65 66
53 53 53 53 53 54 54 54 55 55 55 56 56 56 56 56 57 57 57 56 56 57 57 57 57 57 57 57 57 57 57 55 50 48 45 42 60 61 64 67 69 73 76 65 61 59 57 58 60 59 59 60 60 58 58 54 57 52 51 51 48 47 46 46 44 44 43 31 35 47 49 50 51 53 55 56 57 57 57 59 60 61 62 64 64 64 65 66
52 52 53 53 53 53 54 54 55 55 55 55 55 56 56 56 56 56 56 57 56 57 57 57 57 57 57 57 58 58 56 53 51 35 29 62 66 63 63 68 70 74 69 63 62 60 58 58 59 59 58 58 56 54 55 52 54 53 50 48 48 48 47 46 44 44 44 33 42 46 48 49 51 52 54 55 56 56 57 58 60 61 61 63 64 64 65 65
51 53 53 53 53 54 54 54 55 55 55 55 55 55 56 56 56 56 56 56 56 56 57 56 57 57 57 57 58 57 55 54 30 29 36 69 73 68 64 70 71 74 64 55 63 61 59 57 58 58 57 57 56 54 50 49 51 51 50 48 48 48 48 47 46 44 44 36 40 41 46 48 48 50 52 55 53 55 57 59 60 60 61 62 63 64 65 65
52 52 52 53 53 53 54 54 55 55 55 55 55 55 55 56 56 56 57 56 56 56 56 56 57 57 57 57 57 57 54 13 13 38 42 72 74 69 66 69 73 70 60 51 50 55 57 54 54 56 56 55 55 51 50 48 49 49 49 49 48 48 46 47 45 44 43 37 36 40 43 44 43 44 51 52 51 53 56 60 61 61 62 62 62 64 64 65
52 52 52 53 53 53 54 54 54 55 55 55 55 55 55 55 56 55 55 56 56 56 56 57 57 57 57 57 57 56 28 7 22 25 72 71 72 69 68 68 73 67 59 50 45 43 45 51 50 52 53 53 50 50 48 48 48 44 46 48 48 47 45 42 41 41 40 37 34 36 36 35 36 40 50 50 51 54 59 60 61 62 62 62 63 63 64 65
52 52 52 53 53 53 54 54 54 55 54 54 55 55 55 55 55 55 55 55 56 56 56 57 57 57 57 58 56 54 41 13 24 19 67 74 70 70 69 70 76 63 56 48 43 40 40 43 48 49 52 52 51 48 48 48 48 46 44 44 46 47 45 43 38 39 39 39 34 36 34 33 35 41 46 47 49 57 60 61 61 62 62 62 62 63 64 64
52 52 53 52 53 53 53 54 54 54 54 54 54 55 55 55 55 55 55 55 55 56 57 57 57 56 58 56 53 45 45 38 30 25 65 73 71 73 72 68 65 57 52 46 42 40 39 38 42 47 49 51 50 49 49 48 48 45 45 45 43 45 45 42 39 39 39 40 40 34 32 33 31 38 41 43 54 58 60 61 61 62 62 62 62 62 63 64
51 52 52 53 53 53 54 54 54 54 54 54 55 55 54 55 54 55 55 55 56 56 56 56 57 57 58 56 48 31 20 25 20 29 53 67 65 66 61 60 58 51 47 44 42 40 39 37 39 43 46 50 51 50 48 45 41 42 39 38 40 43 43 41 38 38 38 41 40 35 34 35 32 38 40 53 56 59 60 61 61 61 61 62 62 62 63 64
52 52 52 53 53 53 53 54 54 54 54 55 54 54 54 54 54 54 55 55 55 55 56 56 57 57 56 55 51 19 15 24 25 21 47 59 64 58 50 50 56 49 45 44 43 41 38 38 41 42 44 45 48 46 46 40 37 36 34 32 35 38 41 40 38 38 38 40 40 38 39 39 37 47 52 55 57 59 60 60 61 61 61 61 62 63 64 64
51 52 53 53 53 53 53 53 54 54 54 54 54 54 54 54 54 54 54 54 54 55 55 57 57 58 55 53 40 26 29 26 45 52 53 56 56 50 47 51 52 50 48 47 45 43 39 38 45 47 43 43 39 38 37 35 34 32 32 30 29 29 34 40 39 38 37 39 40 39 39 37 35 51 53 56 57 59 59 59 60 60 61 61 62 63 65 64
52 52 53 53 53 53 53 53 53 54 54 54 54 53 54 54 54 54 54 54 54 55 56 56 57 57 56 53 47 20 25 33 30 34 46 50 45 43 42 50 48 47 46 42 45 44 42 41 44 47 40 36 39 38 35 32 29 28 29 27 29 29 24 38 38 38 38 36 41 40 38 36 37 51 54 56 57 58 58 58 59 60 60 61 62 63 64 64
52 52 52 52 52 53 53 53 53 53 53 53 53 53 54 53 53 53 53 54 54 55 56 57 58 57 55 41 40 38 30 26 23 23 28 45 42 40 40 48 45 43 43 40 40 44 44 43 45 45 44 42 35 30 29 23 23 23 25 27 26 24 22 25 38 38 36 36 40 38 36 36 40 53 55 57 57 57 57 58 59 59 60 60 61 62 63 64
52 52 52 52 53 53 53 53 53 53 53 53 53 53 53 52 53 53 54 54 55 56 57 58 57 57 53 38 41 43 43 38 35 31 24 26 41 40 41 41 45 43 42 39 38 39 43 43 42 42 42 37 32 24 23 21 21 17 20 20 19 20 21 22 34 38 35 37 39 39 36 36 44 53 55 56 56 56 56 57 58 58 59 59 60 61 62 63
52 53 52 52 53 53 53 53 53 53 53 53 53 52 52 51 53 54 55 55 56 57 58 60 58 56 50 42 49 50 62 52 42 35 31 26 27 36 39 39 38 42 40 39 38 36 36 39 39 37 34 33 31 26 24 20 21 20 16 17 18 19 20 21 27 32 34 37 38 38 40 37 44 53 55 56 56 56 56 57 57 58 58 59 59 61 61 62
53 52 52 53 53 53 53 53 52 53 53 52 51 51 52 53 53 55 56 56 56 57 59 56 55 56 48 33 38 55 44 53 50 47 39 29 28 30 37 39 37 38 39 37 37 35 34 33 31 31 32 31 26 19 16 17 17 20 16 18 16 18 19 20 21 29 32 37 36 36 36 38 42 52 55 56 56 56 56 57 57 57 57 58 59 60 60 61
52 52 52 52 53 53 53 52 52 53 52 51 51 51 52 53 55 57 57 57 56 58 58 54 56 57 40 40 44 35 34 40 50 48 44 35 28 28 32 37 34 33 33 31 33 35 33 31 33 32 29 27 24 18 18 16 17 19 20 18 18 16 19 20 22 25 30 36 34 35 36 38 41 50 53 55 56 56 56 56 56 57 57 58 58 59 60 60
52 52 52 52 53 53 53 52 52 52 51 51 50 50 50 54 57 58 57 56 56 57 57 57 54 50 38 45 35 31 35 35 45 43 43 41 35 32 30 30 30 29 28 27 29 27 29 27 29 28 25 24 20 18 17 15 16 17 21 20 17 19 18 18 18 25 31 36 33 35 37 38 40 48 51 53 55 54 55 55 56 56 56 57 57 58 59 59
52 52 52 52 52 53 53 52 52 51 51 50 51 52 54 55 54 51 50 51 52 49 41 49 43 19 12 40 43 41 43 39 37 37 38 39 37 35 30 30 28 27 25 25 26 25 28 26 32 29 25 23 22 18 16 17 19 16 17 18 19 17 17 17 18 19 30 33 32 36 36 38 38 42 49 51 52 52 53 53 55 55 55 55 57 58 58 58
51 52 52 52 52 52 53 52 52 51 50 49 47 47 49 35 39 46 50 51 50 33 35 42 43 31 31 30 30 33 37 41 39 35 33 33 28 27 26 25 26 25 23 23 25 24 26 23 24 24 26 25 21 19 17 16 17 18 18 18 17 17 18 18 18 19 32 32 32 35 37 38 35 35 47 49 50 50 51 51 53 54 54 54 56 57 57 57
52 52 52 52 52 52 52 52 51 50 50 49 48 42 31 31 29 20 22 22 28 37 36 34 41 41 34 35 36 36 40 40 41 38 31 33 27 24 23 24 24 21 21 23 23 27 25 23 23 24 26 26 24 21 18 17 17 16 16 17 17 18 17 18 18 25 32 32 32 35 37 38 37 35 42 48 48 47 50 50 51 53 53 53 55 56 56 56
52 52 52 52 52 52 52 51 51 50 50 48 46 31 33 35 31 26 23 21 22 24 27 32 33 33 38 39 37 37 38 36 35 34 34 30 25 23 24 23 23 22 22 23 23 23 22 22 23 24 25 25 24 22 19 17 16 16 16 16 17 18 18 19 20 20 22 28 31 33 36 37 38 38 38 44 45 46 49 49 50 52 52 52 54 55 56 55
52 52 52 53 52 51 51 51 49 50 48 40 39 37 31 31 33 32 29 24 20 20 20 20 20 22 23 26 30 34 33 32 31 32 31 29 24 23 23 22 22 22 24 23 22 22 21 21 23 25 25 23 22 22 20 18 17 16 15 15 15 17 18 17 19 22 24 24 29 33 34 36 38 39 39 39 42 44 47 48 49 51 51 51 52 54 55 55
52 52 52 52 52 51 51 50 49 44 40 42 42 37 33 34 34 34 30 24 20 20 19 19 19 18 18 17 18 21 25 25 27 27 30 28 23 23 23 23 22 22 23 23 22 22 21 22 23 23 23 22 21 20 20 18 17 17 16 15 15 15 16 18 18 20 25 26 31 32 37 36 37 38 40 40 39 41 44 46 47 50 51 51 51 53 55 54
52 52 52 52 51 51 49 49 42 42 44 41 40 32 33 33 33 35 30 24 23 22 23 20 20 19 18 20 17 16 17 16 21 25 29 28 23 21 21 24 23 21 21 24 23 22 22 21 23 22 21 20 20 18 18 17 15 14 16 16 15 15 15 17 18 18 19 26 30 32 32 33 38 38 40 41 41 41 42 43 44 48 49 50 50 52 54 55
52 52 52 52 52 51 49 37 38 44 43 39 30 34 34 32 33 35 29 25 20 22 23 19 19 16 17 13 12 11 12 10 12 19 26 28 29 22 22 19 21 19 20 22 23 24 23 23 20 21 21 18 18 18 17 16 14 12 13 16 16 15 15 16 17 20 28 26 31 32 30 32 39 38 39 41 41 41 42 42 42 46 48 48 49 50 53 54
52 52 52 51 51 50 44 37 42 44 35 29 32 38 33 32 35 33 24 23 23 26 19 27 16 15 17 14 10 9 2 4 9 13 20 30 26 24 19 18 18 21 20 23 26 20 23 23 22 19 19 18 16 15 16 15 13 11 13 15 15 15 15 15 16 17 28 34 28 31 30 33 33 35 39 40 40 41 42 42 42 44 47 47 48 49 52 54
53 52 52 51 50 50 46 46 45 42 40 35 39 35 33 35 38 30 26 25 23 27 18 17 16 20 20 11 9 5 8 12 7 9 15 20 29 22 20 17 15 15 19 20 17 22 22 21 21 20 17 16 15 15 15 15 12 12 12 12 15 16 16 16 16 17 18 20 19 26 32 33 34 35 38 40 39 40 40 42 43 43 45 47 47 48 51 53
52 52 52 51 50 49 48 47 44 41 42 39 37 35 36 39 37 27 27 21 26 24 21 17 26 13 13 10 8 6 12 13 11 8 13 19 25 25 21 20 16 15 16 19 18 20 20 21 21 21 19 16 15 15 15 14 12 11 10 11 10 10 15 17 17 16 19 20 21 25 26 27 32 40 37 40 38 38 40 41 43 44 44 45 47 47 49 52
52 52 51 51 48 44 44 44 43 42 40 39 38 40 43 41 29 26 25 19 26 18 20 21 18 14 8 7 7 6 7 10 14 15 14 17 22 24 24 23 18 15 15 16 17 19 20 29 27 21 19 19 16 13 13 12 12 12 7 6 7 7 8 14 21 22 22 17 19 23 27 27 26 36 36 38 38 38 39 41 42 44 45 45 46 46 48 51
52 51 51 50 46 44 45 42 39 42 42 40 43 44 42 32 26 22 18 19 19 16 24 22 22 10 7 6 5 6 6 6 9 13 12 16 20 23 17 19 20 17 15 15 15 16 17 18 19 21 23 21 18 13 11 11 11 10 6 4 5 9 14 18 23 29 19 15 23 20 25 28 25 32 38 38 39 38 39 40 42 43 45 45 46 46 47 49
50 50 50 49 48 48 45 39 35 39 42 44 45 43 31 18 20 18 16 20 17 21 19 16 21 13 7 7 6 5 4 4 7 11 11 13 16 19 16 17 17 15 14 13 12 15 15 17 18 17 29 19 18 16 12 8 9 8 5 8 4 9 9 5 10 9 15 14 25 24 25 27 27 33 35 38 39 39 39 39 41 42 44 46 46 46 47 48
49 49 49 49 47 47 47 45 44 45 45 45 45 40 25 20 14 13 14 15 20 18 16 18 13 13 14 11 6 6 5 2 3 6 11 12 13 16 16 14 16 16 14 13 12 12 13 17 15 16 16 22 17 15 14 8 6 6 5 10 6 4 5 9 10 18 21 26 27 20 28 26 33 30 37 36 38 39 40 40 41 41 44 46 46 47 47 48
49 49 47 46 46 45 45 46 46 46 45 47 43 35 26 22 20 27 12 13 13 14 15 15 17 14 15 13 11 6 3 4 4 4 9 10 10 10 12 12 13 13 16 14 11 11 11 12 13 14 13 16 16 14 13 11 6 6 4 4 7 6 8 10 11 8 9 19 24 21 21 26 23 27 34 37 38 38 40 41 42 42 43 46 46 46 47 48
49 47 45 44 44 44 44 46 46 46 46 43 36 30 16 16 20 19 17 13 13 15 17 20 16 12 10 11 13 11 4 4 5 5 7 8 8 8 8 9 11 13 14 13 15 16 11 13 19 16 16 17 15 16 13 9 5 4 3 3 7 5 21 7 22 16 18 16 19 24 22 27 21 35 36 36 37 38 40 41 43 43 43 45 46 45 46 48
47 44 45 44 44 42 42 45 46 45 44 40 35 30 21 18 16 16 16 19 21 22 20 19 15 11 10 10 17 14 11 9 6 7 7 8 8 7 8 8 8 11 12 9 17 11 14 11 13 18 16 15 15 17 15 9 8 8 3 1 2 11 5 15 31 27 27 24 14 32 29 27 31 26 35 37 36 37 39 40 42 43 43 45 46 46 45 47
45 45 42 42 43 44 41 37 45 45 42 38 33 25 25 23 23 23 28 27 26 22 20 17 18 15 13 10 11 10 14 11 13 7 10 12 9 8 7 7 7 8 12 12 15 15 13 14 15 13 14 17 17 16 15 12 13 7 2 4 6 7 5 9 7 14 8 11 19 16 14 22 24 22 33 35 37 36 38 39 40 43 44 44 45 47 46 45
46 44 44 44 46 41 34 35 43 44 41 37 33 37 35 32 33 31 30 26 26 25 21 21 18 19 15 13 10 10 11 9 16 12 10 12 11 11 8 7 7 7 9 14 14 18 14 12 13 14 13 15 18 17 15 15 11 4 3 6 1 9 3 16 17 4 6 6 12 18 18 22 25 27 33 35 36 37 38 39 39 42 43 44 44 46 47 46
45 41 36 36 37 36 35 37 40 43 39 35 33 35 34 33 32 30 29 30 30 26 23 20 17 18 15 14 14 15 13 9 10 10 14 15 12 14 10 10 10 7 7 12 13 22 16 11 14 14 13 14 16 17 15 14 15 13 8 5 4 10 5 9 9 19 15 14 12 10 21 17 29 29 31 29 36 37 37 39 38 39 42 44 44 45 47 47
39 38 35 37 35 36 37 37 35 41 38 34 34 34 34 33 34 34 33 32 30 27 25 24 24 23 24 21 22 20 19 15 12 10 10 14 13 19 13 14 14 9 8 10 11 14 15 16 12 16 14 13 13 16 15 14 13 13 11 9 17 10 14 5 15 4 16 22 18 16 12 21 30 34 31 28 33 37 37 38 39 39 40 43 44 44 46 47
42 38 36 37 35 37 36 33 32 37 37 36 36 35 35 34 33 31 30 29 28 27 25 25 25 24 24 24 24 24 21 20 17 11 8 7 7 15 21 18 18 14 11 10 9 13 14 16 13 15 12 12 12 16 15 14 14 14 13 12 9 3 10 3 6 7 16 15 18 17 10 28 32 33 31 27 30 34 36 37 38 39 39 40 43 44 45 46
40 33 32 34 36 37 35 31 30 30 28 34 35 35 34 38 32 30 29 27 26 25 25 22 22 21 23 24 24 23 22 21 21 18 13 8 6 7 11 28 23 20 15 13 11 13 15 21 15 13 13 12 12 14 16 14 14 14 13 12 11 6 11 12 9 21 16 9 21 25 17 18 31 33 31 32 32 33 34 36 37 38 38 39 41 43 45 46
35 34 36 38 38 36 33 31 33 34 29 28 29 29 32 32 31 29 27 23 19 20 21 21 21 19 20 26 27 26 26 24 21 19 19 18 15 12 19 32 30 26 21 17 16 16 47 17 17 17 18 14 14 14 15 17 13 12 12 12 9 6 5 5 16 26 12 21 10 12 18 14 29 34 28 28 33 33 33 34 35 36 36 39 41 42 45 46
37 37 36 38 38 36 33 30 31 28 28 28 28 28 28 27 25 22 22 25 25 23 23 23 24 25 27 28 28 28 29 26 27 29 24 25 21 31 30 31 30 28 26 32 29 25 20 20 18 16 16 15 13 14 13 17 14 11 11 11 10 8 6 7 12 32 11 16 13 10 6 17 33 34 22 19 33 37 33 33 34 34 36 39 42 43 45 47
39 38 38 37 37 33 31 31 29 28 29 29 29 28 29 28 28 28 27 26 27 27 26 25 25 25 25 26 27 27 28 30 30 30 31 30 30 32 31 31 31 28 32 44 49 36 25 20 20 15 15 14 13 11 12 13 13 12 11 9 9 8 7 10 6 18 12 27 24 17 16 32 37 36 17 11 9 16 33 34 35 35 35 37 43 45 47 47
35 30 32 32 33 33 35 31 30 30 30 30 29 28 27 26 27 27 27 26 27 26 26 26 26 26 26 26 26 26 27 29 29 30 32 29 29 30 30 30 32 30 49 48 47 37 29 23 23 19 15 14 16 23 31 33 15 12 11 10 8 8 7 8 14 14 10 26 21 24 29 30 27 25 20 12 11 8 9 27 37 36 39 42 44 46 46 48
40 34 31 30 33 33 30 31 31 31 29 30 28 28 26 26 26 26 27 25 26 26 24 25 26 25 26 27 26 26 27 27 28 29 29 28 29 28 28 31 31 39 48 42 42 32 35 29 22 26 21 17 16 18 16 22 13 13 12 10 9 8 9 8 10 9 28 17 12 24 36 19 23 27 28 25 15 15 35 35 32 37 37 36 41 44 52 46
34 33 33 35 33 30 30 31 33 33 32 30 29 28 27 27 26 26 27 27 27 26 23 24 25 25 27 28 28 26 27 27 28 27 28 28 27 27 27 29 30 40 40 32 35 31 32 28 27 23 17 17 15 15 13 16 19 15 12 11 9 9 9 9 13 14 21 12 11 20 37 28 31 26 22 25 24 21 25 29 34 37 37 41 49 44 46 46
37 35 35 35 33 33 35 34 34 33 31 30 30 29 27 26 26 27 27 27 27 26 26 22 21 27 28 29 29 29 30 26 26 29 29 27 27 27 27 28 31 31 31 31 32 33 31 30 34 29 23 16 15 15 14 12 15 19 14 12 11 9 9 9 10 12 13 22 21 24 32 28 28 29 30 26 25 27 33 38 40 39 46 47 48 47 44 44
36 36 35 36 36 35 34 34 33 32 30 32 29 28 26 27 27 27 27 27 26 26 26 25 26 26 26 30 32 29 28 28 28 27 29 28 27 29 27 29 29 29 29 30 31 33 31 31 38 28 27 19 15 16 15 14 14 17 18 14 12 11 9 9 9 11 18 14 20 17 23 24 25 27 22 22 32 41 38 27 36 42 47 51 51 45 45 44
42 44 42 37 34 33 35 34 33 33 31 31 29 29 30 28 28 29 27 27 27 26 26 26 27 27 28 30 30 30 29 29 30 28 27 27 26 28 27 28 28 27 28 29 30 31 32 33 31 30 28 22 16 15 15 15 14 13 15 15 14 13 12 11 11 11 17 25 24 22 26 24 31 32 32 29 30 27 28 34 41 43 47 52 50 48 47 47
43 47 44 41 33 35 34 32 32 30 29 30 33 32 31 30 30 31 28 28 29 30 30 29 29 28 28 29 29 29 30 31 30 28 27 28 29 29 29 29 29 28 28 29 30 30 33 31 29 29 28 27 24 16 14 14 14 13 13 13 15 17 17 14 15 20 17 16 19 20 17 28 27 34 28 25 21 27 25 34 41 42 50 49 48 49 49 47